This is the latest recevied weather packets stored in our database for station/object OE3APM-13. If no packets are shown the sender has not sent any weather packets the latest 10 day(s).
| Time | Temp. | Humidity | Pressure | Rain* | Wind** | Luminosity | Snow |
|---|---|---|---|---|---|---|---|
| 1777534008 | 7.22° C | 41% | 1030.5 hPa | 0 mm | - | 598 W/m² | - |
| 1777533708 | 7.22° C | 41% | 1030.5 hPa | 0 mm | - | 584 W/m² | - |
| 1777533407 | 6.67° C | 42% | 1030.4 hPa | 0 mm | - | 571 W/m² | - |
| 1777533108 | 6.67° C | 45% | 1030.4 hPa | 0 mm | - | 557 W/m² | - |
| 1777532805 | 6.67° C | 45% | 1030.4 hPa | 0 mm | - | 545 W/m² | - |
| 1777532505 | 6.11° C | 44% | 1030.4 hPa | 0 mm | - | 531 W/m² | - |
| 1777532204 | 6.11° C | 44% | 1030.5 hPa | 0 mm | - | 513 W/m² | - |
| 1777531901 | 5.56° C | 45% | 1030.5 hPa | 0 mm | - | 504 W/m² | - |
| 1777531601 | 5.56° C | 49% | 1030.4 hPa | 0 mm | - | 489 W/m² | - |
| 1777531298 | 5° C | 47% | 1030.5 hPa | 0 mm | - | 473 W/m² | - |
| 1777530997 | 5° C | 51% | 1030.4 hPa | 0 mm | - | 459 W/m² | - |
| 1777530696 | 4.44° C | 56% | 1030.4 hPa | 0 mm | - | 443 W/m² | - |
| 1777530399 | 3.89° C | 54% | 1030.3 hPa | 0 mm | - | 427 W/m² | - |
| 1777530096 | 3.33° C | 60% | 1030.3 hPa | 0 mm | - | 411 W/m² | - |
| 1777529795 | 2.78° C | 63% | 1030.3 hPa | 0 mm | - | 396 W/m² | - |
| 1777529492 | 2.22° C | 65% | 1030.3 hPa | 0 mm | - | 380 W/m² | - |
| 1777529190 | 1.67° C | 66% | 1030.2 hPa | 0 mm | - | 367 W/m² | - |
| 1777528892 | 1.11° C | 71% | 1030.2 hPa | 0 mm | - | 353 W/m² | - |
| 1777528591 | 0.56° C | 72% | 1030.3 hPa | 0 mm | - | 336 W/m² | - |
| 1777528291 | 0.56° C | 72% | 1030.2 hPa | 0 mm | - | 320 W/m² | - |
| 1777527994 | 0° C | 75% | 1030.1 hPa | 0 mm | - | 304 W/m² | - |
| 1777527696 | -0.56° C | 75% | 1030.1 hPa | 0 mm | - | 290 W/m² | - |
| 1777527390 | -1.11° C | 76% | 1030.1 hPa | 0 mm | - | 230 W/m² | - |
| 1777527092 | -1.67° C | 76% | 1030 hPa | 0 mm | - | 262 W/m² | - |
| 1777526791 | -1.67° C | 77% | 1030 hPa | 0 mm | - | 244 W/m² | - |
* Rain latest hour (hover to see other rain measurements)
** Current wind speed in m/s (hover to see current wind gust speed)